Location: Warszawa
(52.2500°N, 21.0000°E)
Time: 23:48:20
(UTC+01:00)

A-11 Canister half - Pass Details

Date: 14 February 2023
Orbit: 1526 x 1682 km, 47.3° (Epoch: 22 March)

Event Time Altitude Azimuth Distance (km) Brightness Sun altitude
Exits shadow 02:08:32 30° 122° (ESE) 2,460 10.1 -42.1°
Drops below altitude 10° 02:14:34 10° 84° (E) 3,700 11.5 -41.4°
Sets 02:18:00 0° 75° (ENE) 4,691 12.3 -41.0°
